Location: Unspecified
(0.0000°N, 0.0000°E)
Time: 23:51:26
(UTC+00:00)

Vanguard 2 - Pass Details

Date: 10 October 2020
Orbit: 554 x 2937 km, 32.9° (Epoch: 28 October)

Event Time Altitude Azimuth Distance (km) Brightness Sun altitude
Rises 01:16:25 0° 276° (W) 6,758 - -66.7°
Reaches altitude 10° 01:23:19 10° 291° (WNW) 5,560 - -65.0°
Maximum altitude 01:33:25 19° 330° (NNW) 4,309 - -62.6°
Drops below altitude 10° 01:41:38 10° 11° (N) 4,380 - -60.6°
Exits shadow 01:45:46 - 27° (NNE) 4,881 11.7 -59.6°
Sets 01:46:09 0° 29° (NNE) 4,942 11.8 -59.5°
